Binghamton, NY

5:35 AM EDT on July 27, 2017 (GMT -0400)
Binghamton Regional-Link

Weather History for KBGM - February, 2013

Change the Weather History Date:

Tuesday, February 5, 2013

  Actual Average Record
Temperature  
Mean Temperature 20 °F 23 °F  
Max Temperature 26 °F 30 °F 55 °F (1991)
Min Temperature 14 °F 16 °F -7 °F (1978)
Degree Days  
Heating Degree Days 45 42  
Month to date heating degree days 243 210  
Since 1 July heating degree days 3986 4282  
Cooling Degree Days 0 0  
Month to date cooling degree days 0 0  
Year to date cooling degree days 0 0  
Moisture  
Dew Point 14 °F    
Average Humidity 73    
Maximum Humidity 88    
Minimum Humidity 57    
Precipitation  
Precipitation 0.01 in 0.08 in 1.29 in (2014)
Month to date precipitation 0.11 0.40  
Year to date precipitation 2.36 2.85  
Snow  
Snow 0.10 in 0.60 in 13.20 in (2014)
Month to date snowfall 3.8 3.1  
Since 1 July snowfall 38.0 49.9  
Snow Depth 2.00 in    
Sea Level Pressure  
Sea Level Pressure 29.87 in    
Wind  
Wind Speed 4 mph (South)    
Max Wind Speed 13 mph    
Max Gust Speed 16 mph    
Visibility 9 miles    
Events Snow    
T = Trace of Precipitation, MM = Missing Value Source: NWS Daily Summary

Daily Weather History Graph

Daily Weather History Graph

Search for Another Location

Airport or City:

Trip Planner

Search our weather history database for the weather conditions in past years. The results will help you decide how hot, cold, wet, or windy it might be!

Date:

Astronomy

Feb. 05, 2013 Rise Set
Actual Time 7:12 AM EST 5:23 PM EST
Civil Twilight 6:43 AM EST 5:53 PM EST
Nautical Twilight 6:09 AM EST 6:26 PM EST
Astronomical Twilight 5:37 AM EST 6:59 PM EST
Moon 2:53 AM EST (2/5) 12:37 PM EST (2/5)
Length of Visible Light 11h 10m
Length of Day
10h 11m
Waning Crescent, 27% of the Moon is Illuminated
Feb 5
Waning Crescent
Feb 10
New
Feb 17
First Quarter
Feb 25
Full
Mar 4
Last Quarter

Hourly Weather History & Observations

Time (EST) Temp. Windchill Dew Point Humidity Pressure Visibility Wind Dir Wind Speed Gust Speed Precip Events Conditions
12:53 AM 15.1 °F 9.4 °F 10.9 °F 84% 29.89 in 5.0 mi NE 3.5 mph - 0.01 in Snow Light Snow
1:53 AM 15.1 °F 9.4 °F 10.9 °F 84% 29.90 in 4.0 mi ENE 3.5 mph - 0.00 in Snow Light Snow
2:53 AM 15.1 °F 9.4 °F 10.9 °F 84% 29.89 in 4.0 mi East 3.5 mph - 0.00 in Snow Light Snow
3:36 AM 15.8 °F - 12.2 °F 86% 29.81 in 6.0 mi Calm Calm - 0.00 in   Overcast
3:53 AM 15.1 °F - 12.0 °F 88% 29.90 in 8.0 mi Calm Calm - 0.00 in   Overcast
4:53 AM 15.1 °F - 10.9 °F 84% 29.90 in 6.0 mi Calm Calm - 0.00 in   Overcast
5:53 AM 15.1 °F - 12.0 °F 88% 29.91 in 10.0 mi Calm Calm - 0.00 in   Overcast
6:29 AM 15.8 °F - 10.4 °F 79% 29.83 in 10.0 mi Calm Calm - N/A   Overcast
6:53 AM 15.1 °F - 10.9 °F 84% 29.93 in 10.0 mi Calm Calm - N/A   Overcast
7:53 AM 15.1 °F - 10.0 °F 80% 29.94 in 10.0 mi Calm Calm - N/A   Overcast
8:53 AM 16.0 °F 8.8 °F 10.9 °F 81% 29.94 in 10.0 mi East 4.6 mph - N/A   Overcast
9:53 AM 17.1 °F 8.7 °F 10.0 °F 74% 29.94 in 10.0 mi SE 5.8 mph - N/A   Clear
10:53 AM 19.9 °F 14.9 °F 12.0 °F 71% 29.94 in 10.0 mi East 3.5 mph - N/A   Clear
11:53 AM 21.9 °F 15.7 °F 12.9 °F 68% 29.91 in 10.0 mi ESE 4.6 mph - N/A   Clear
12:53 PM 24.1 °F 18.2 °F 12.0 °F 60% 29.89 in 10.0 mi South 4.6 mph - N/A   Clear
1:53 PM 24.1 °F 18.2 °F 12.9 °F 62% 29.86 in 10.0 mi SSW 4.6 mph - N/A   Partly Cloudy
2:53 PM 26.1 °F 17.6 °F 14.0 °F 60% 29.86 in 10.0 mi SSW 8.1 mph - N/A   Mostly Cloudy
3:53 PM 26.1 °F 21.9 °F 15.1 °F 63% 29.85 in 10.0 mi SSW 3.5 mph - N/A   Overcast
4:48 PM 26.6 °F 21.2 °F 15.8 °F 64% 29.76 in 10.0 mi South 4.6 mph - N/A   Mostly Cloudy
4:53 PM 26.1 °F 21.9 °F 15.1 °F 63% 29.83 in 10.0 mi South 3.5 mph - N/A   Scattered Clouds
5:53 PM 26.1 °F 21.9 °F 16.0 °F 66% 29.84 in 10.0 mi SW 3.5 mph - N/A   Overcast
6:53 PM 26.1 °F 21.9 °F 18.0 °F 71% 29.85 in 10.0 mi SSW 3.5 mph - N/A   Overcast
7:07 PM 26.6 °F 21.2 °F 17.6 °F 69% 29.78 in 10.0 mi SSW 4.6 mph - N/A   Overcast
7:53 PM 25.0 °F - 19.0 °F 78% 29.86 in 5.0 mi Calm Calm - 0.00 in Snow Light Snow
8:53 PM 24.1 °F 18.2 °F 19.0 °F 81% 29.87 in 10.0 mi SW 4.6 mph - 0.00 in   Overcast
9:53 PM 25.0 °F 18.1 °F 19.9 °F 81% 29.87 in 9.0 mi SW 5.8 mph - N/A   Overcast
10:25 PM 24.8 °F 16.1 °F 19.4 °F 80% 29.80 in 10.0 mi SW 8.1 mph - N/A   Overcast
10:53 PM 25.0 °F 16.3 °F 19.9 °F 81% 29.86 in 9.0 mi WSW 8.1 mph - N/A   Overcast
11:53 PM 25.0 °F 14.8 °F 19.9 °F 81% 29.88 in 10.0 mi WSW 10.4 mph - 0.00 in   Overcast